| time (UTC) | temp F | wind direction | speed MPH | gust MPH | rain 1hr in | rain 24hr in | rain mn in | humidity % | barometer mb |
| 20260506144208 | 51 | 8 | 2.0 | 4.0 | 0.00 | 0.51 | 0.06 | 90 | 999.6 |
| 20260506143710 | 51 | 10 | 2.0 | 4.0 | 0.00 | 0.51 | 0.06 | 91 | 999.7 |
| 20260506143208 | 50 | 96 | 0.0 | 5.0 | 0.00 | 0.51 | 0.06 | 91 | 999.8 |
| 20260506142708 | 50 | 99 | 2.0 | 5.0 | 0.00 | 0.51 | 0.06 | 91 | 999.7 |
| 20260506142208 | 50 | 66 | 2.0 | 5.0 | 0.00 | 0.51 | 0.06 | 91 | 999.7 |
| 20260506141709 | 50 | 52 | 1.0 | 5.0 | 0.00 | 0.51 | 0.06 | 92 | 999.5 |
| 20260506141209 | 49 | 68 | 2.0 | 5.0 | 0.00 | 0.51 | 0.06 | 93 | 999.5 |
| 20260506140708 | 49 | 49 | 2.0 | 3.0 | 0.00 | 0.51 | 0.06 | 93 | 999.3 |
| 20260506140208 | 49 | 94 | 0.0 | 3.0 | 0.00 | 0.51 | 0.06 | 94 | 999.5 |
| 20260506135713 | 49 | 93 | 2.0 | 6.0 | 0.00 | 0.51 | 0.06 | 93 | 999.7 |
| 20260506135207 | 49 | 39 | 1.0 | 6.0 | 0.00 | 0.51 | 0.06 | 93 | 999.6 |
| 20260506134709 | 49 | 56 | 4.0 | 6.0 | 0.00 | 0.51 | 0.06 | 94 | 999.4 |
| 20260506134207 | 49 | 66 | 2.0 | 4.0 | 0.00 | 0.51 | 0.06 | 95 | 999.3 |
| 20260506133708 | 48 | 37 | 2.0 | 3.0 | 0.00 | 0.51 | 0.06 | 95 | 999.5 |
| 20260506133206 | 48 | 37 | 2.0 | 4.0 | 0.00 | 0.51 | 0.06 | 95 | 999.5 |
| 20260506132707 | 48 | 30 | 1.0 | 6.0 | 0.00 | 0.51 | 0.06 | 95 | 999.5 |
| 20260506132207 | 48 | 75 | 1.0 | 6.0 | 0.00 | 0.51 | 0.06 | 95 | 999.5 |
| 20260506131936 | 48 | 90 | 1.0 | 7.0 | 0.00 | 0.51 | 0.06 | 95 | 999.4 |
| 20260506131205 | 48 | 18 | 2.0 | 7.0 | 0.00 | 0.51 | 0.06 | 95 | 999.3 |
| 20260506130705 | 48 | 56 | 1.0 | 6.0 | 0.00 | 0.51 | 0.06 | 95 | 999.1 |
| 20260506130206 | 47 | 93 | 1.0 | 4.0 | 0.00 | 0.51 | 0.06 | 95 | 999.0 |
| 20260506125706 | 47 | 99 | 2.0 | 4.0 | 0.00 | 0.51 | 0.06 | 95 | 999.3 |
| 20260506125205 | 47 | 109 | 1.0 | 3.0 | 0.00 | 0.51 | 0.06 | 96 | 999.2 |
| 20260506124705 | 47 | 32 | 2.0 | 3.0 | 0.00 | 0.51 | 0.06 | 96 | 999.0 |
| 20260506124206 | 47 | 92 | 1.0 | 9.0 | 0.00 | 0.51 | 0.06 | 95 | 999.0 |
| 20260506123937 | 47 | 99 | 3.0 | 9.0 | 0.00 | 0.51 | 0.06 | 95 | 999.0 |
| 20260506123205 | 47 | 111 | 2.0 | 4.0 | 0.00 | 0.51 | 0.06 | 96 | 999.0 |
| 20260506122704 | 47 | 355 | 1.0 | 3.0 | 0.00 | 0.51 | 0.06 | 96 | 998.7 |
| 20260506122206 | 47 | 0 | 0.0 | 1.0 | 0.00 | 0.51 | 0.06 | 96 | 998.7 |
| 20260506121704 | 47 | 0 | 0.0 | 3.0 | 0.00 | 0.51 | 0.06 | 96 | 998.6 |
| 20260506121204 | 47 | 0 | 0.0 | 3.0 | 0.00 | 0.51 | 0.06 | 96 | 998.3 |
| 20260506120704 | 47 | 27 | 1.0 | 3.0 | 0.00 | 0.51 | 0.06 | 96 | 998.2 |
| 20260506120204 | 47 | 31 | 1.0 | 3.0 | 0.00 | 0.51 | 0.06 | 96 | 998.0 |
| 20260506115935 | 47 | 23 | 2.0 | 3.0 | 0.00 | 0.51 | 0.06 | 96 | 997.9 |
| 20260506115202 | 47 | 23 | 2.0 | 3.0 | 0.00 | 0.51 | 0.06 | 96 | 997.8 |
| 20260506114933 | 47 | 71 | 2.0 | 3.0 | 0.00 | 0.51 | 0.06 | 96 | 997.5 |
| 20260506114202 | 47 | 135 | 0.0 | 1.0 | 0.00 | 0.51 | 0.06 | 96 | 997.1 |
| 20260506113702 | 47 | 135 | 0.0 | 2.0 | 0.00 | 0.51 | 0.06 | 96 | 997.2 |
| 20260506113434 | 46 | 135 | 0.0 | 2.0 | 0.00 | 0.52 | 0.06 | 96 | 997.3 |
| 20260506112702 | 47 | 135 | 1.0 | 2.0 | 0.00 | 0.52 | 0.06 | 96 | 997.4 |
| 20260506112202 | 46 | 135 | 1.0 | 2.0 | 0.00 | 0.52 | 0.06 | 95 | 997.2 |
| 20260506111704 | 46 | 135 | 1.0 | 4.0 | 0.00 | 0.53 | 0.06 | 95 | 997.3 |
| 20260506111201 | 46 | 0 | 0.0 | 4.0 | 0.00 | 0.53 | 0.06 | 95 | 997.4 |
| 20260506110700 | 46 | 63 | 1.0 | 3.0 | 0.00 | 0.53 | 0.06 | 95 | 997.1 |
| 20260506110159 | 46 | 65 | 1.0 | 3.0 | 0.00 | 0.54 | 0.06 | 95 | 997.3 |
| 20260506105700 | 46 | 76 | 2.0 | 4.0 | 0.00 | 0.54 | 0.06 | 95 | 997.1 |
| 20260506105159 | 46 | 76 | 2.0 | 4.0 | 0.00 | 0.57 | 0.06 | 95 | 996.7 |
| 20260506104658 | 46 | 65 | 1.0 | 3.0 | 0.00 | 0.57 | 0.06 | 95 | 996.7 |
| 20260506104158 | 46 | 66 | 1.0 | 3.0 | 0.00 | 0.57 | 0.06 | 96 | 996.8 |
| 20260506103929 | 46 | 61 | 2.0 | 3.0 | 0.00 | 0.57 | 0.06 | 95 | 996.7 |
| 20260506103158 | 46 | 61 | 2.0 | 3.0 | 0.00 | 0.57 | 0.06 | 96 | 996.7 |
| 20260506102658 | 46 | 61 | 2.0 | 3.0 | 0.00 | 0.57 | 0.06 | 96 | 996.5 |
| 20260506101657 | 46 | 61 | 0.0 | 3.0 | 0.00 | 0.57 | 0.06 | 95 | 996.6 |
| 20260506101426 | 46 | 61 | 2.0 | 3.0 | 0.00 | 0.57 | 0.06 | 95 | 996.6 |
| 20260506100656 | 46 | 61 | 1.0 | 3.0 | 0.00 | 0.57 | 0.06 | 95 | 996.6 |
| 20260506095928 | 46 | 61 | 1.0 | 3.0 | 0.00 | 0.57 | 0.06 | 95 | 996.4 |
| 20260506095157 | 46 | 61 | 0.0 | 3.0 | 0.00 | 0.57 | 0.06 | 95 | 996.5 |
| 20260506094655 | 46 | 82 | 1.0 | 2.0 | 0.00 | 0.57 | 0.06 | 95 | 996.6 |
| 20260506094156 | 46 | 82 | 1.0 | 2.0 | 0.00 | 0.57 | 0.06 | 96 | 996.7 |
| 20260506093927 | 46 | 82 | 0.0 | 2.0 | 0.01 | 0.57 | 0.06 | 96 | 996.6 |
| 20260506093156 | 46 | 82 | 0.0 | 2.0 | 0.01 | 0.57 | 0.06 | 95 | 996.4 |
| 20260506092656 | 46 | 82 | 1.0 | 2.0 | 0.01 | 0.57 | 0.06 | 95 | 996.2 |
| 20260506092156 | 46 | 82 | 0.0 | 4.0 | 0.01 | 0.57 | 0.06 | 95 | 996.3 |
| 20260506091654 | 46 | 82 | 2.0 | 4.0 | 0.01 | 0.57 | 0.06 | 95 | 996.0 |
| 20260506091431 | 46 | 97 | 0.0 | 3.0 | 0.01 | 0.57 | 0.06 | 95 | 996.4 |
| 20260506090156 | 46 | 100 | 0.0 | 2.0 | 0.01 | 0.57 | 0.06 | 95 | 996.4 |
| 20260506085655 | 46 | 100 | 1.0 | 2.0 | 0.01 | 0.57 | 0.06 | 95 | 996.2 |
| 20260506085154 | 46 | 83 | 0.0 | 3.0 | 0.01 | 0.57 | 0.06 | 95 | 996.5 |
| 20260506084654 | 46 | 83 | 1.0 | 3.0 | 0.01 | 0.57 | 0.06 | 95 | 996.6 |
| 20260506084154 | 46 | 42 | 2.0 | 5.0 | 0.01 | 0.57 | 0.06 | 95 | 996.6 |
| 20260506083922 | 46 | 0 | 2.0 | 5.0 | 0.00 | 0.56 | 0.05 | 95 | 996.4 |
| 20260506083420 | 46 | 4 | 1.0 | 4.0 | 0.00 | 0.56 | 0.05 | 95 | 996.4 |
| 20260506082653 | 0 | 0.0 | 0.0 | 0.00 | 0.56 | 0.05 | 996.0 | ||
| 20260506082423 | 46 | 0 | 2.0 | 3.0 | 0.00 | 0.56 | 0.05 | 95 | 996.5 |
| 20260506081651 | 46 | 0 | 2.0 | 3.0 | 0.00 | 0.56 | 0.05 | 95 | 995.9 |
| 20260506081151 | 46 | 0 | 2.0 | 2.0 | 0.00 | 0.56 | 0.05 | 95 | 996.0 |
| 20260506080651 | 46 | 0 | 2.0 | 3.0 | 0.00 | 0.56 | 0.05 | 95 | 995.7 |
| 20260506080149 | 46 | 0 | 3.0 | 3.0 | 0.00 | 0.56 | 0.05 | 95 | 995.9 |
| 20260506073151 | 46 | 97 | 1.0 | 2.0 | 0.00 | 0.56 | 0.05 | 95 | 995.5 |
| 20260506072650 | 46 | 99 | 1.0 | 4.0 | 0.00 | 0.56 | 0.05 | 95 | 995.5 |
| 20260506072151 | 46 | 87 | 2.0 | 4.0 | 0.00 | 0.56 | 0.05 | 95 | 995.5 |
| 20260506071650 | 46 | 16 | 2.0 | 3.0 | 0.00 | 0.56 | 0.05 | 95 | 995.9 |
| 20260506070650 | 46 | 55 | 1.0 | 2.0 | 0.00 | 0.56 | 0.05 | 95 | 995.2 |
| 20260506070148 | 46 | 47 | 1.0 | 2.0 | 0.00 | 0.56 | 0.05 | 95 | 995.1 |
| 20260506062146 | 47 | 83 | 2.0 | 4.0 | 0.05 | 0.56 | 0.05 | 95 | 995.3 |
| 20260506061646 | 47 | 45 | 2.0 | 3.0 | 0.05 | 0.56 | 0.05 | 95 | 995.5 |
| 20260506061146 | 47 | 55 | 2.0 | 3.0 | 0.05 | 0.56 | 0.05 | 95 | 995.4 |
| 20260506060646 | 47 | 0 | 0.0 | 3.0 | 0.05 | 0.56 | 0.05 | 95 | 995.3 |
| 20260506060145 | 47 | 92 | 0.0 | 4.0 | 0.05 | 0.56 | 0.05 | 95 | 995.2 |
| 20260506051143 | 47 | 55 | 2.0 | 3.0 | 0.06 | 0.51 | 0.00 | 95 | 995.2 |
| 20260506050644 | 47 | 61 | 2.0 | 4.0 | 0.10 | 0.51 | 0.00 | 95 | 994.8 |
| 20260506050143 | 47 | 109 | 2.0 | 4.0 | 0.16 | 0.51 | 0.00 | 95 | 995.2 |
| 20260506044642 | 47 | 83 | 2.0 | 6.0 | 0.20 | 0.50 | 0.50 | 95 | 994.5 |
| 20260506044145 | 47 | 20 | 2.0 | 4.0 | 0.18 | 0.49 | 0.49 | 95 | 994.9 |
| 20260506043643 | 47 | 20 | 2.0 | 4.0 | 0.18 | 0.49 | 0.49 | 95 | 995.8 |
| 20260506043142 | 47 | 75 | 0.0 | 5.0 | 0.18 | 0.49 | 0.49 | 94 | 994.7 |
| 20260506042641 | 47 | 59 | 2.0 | 5.0 | 0.18 | 0.49 | 0.49 | 94 | 994.6 |
| 20260506042142 | 47 | 63 | 1.0 | 4.0 | 0.17 | 0.47 | 0.48 | 94 | 994.3 |
| 20260506041641 | 47 | 38 | 2.0 | 9.0 | 0.17 | 0.47 | 0.47 | 94 | 994.3 |
| 20260506041140 | 47 | 86 | 3.0 | 9.0 | 0.15 | 0.46 | 0.46 | 94 | 994.2 |
| 20260506040641 | 48 | 11 | 2.0 | 5.0 | 0.10 | 0.41 | 0.41 | 94 | 994.8 |
| 20260506040140 | 48 | 358 | 1.0 | 6.0 | 0.05 | 0.35 | 0.36 | 94 | 994.1 |
| 20260506035642 | 48 | 102 | 3.0 | 6.0 | 0.01 | 0.31 | 0.32 | 94 | 994.2 |
| 20260506035141 | 48 | 72 | 2.0 | 6.0 | 0.01 | 0.31 | 0.31 | 94 | 993.7 |
| 20260506034640 | 48 | 86 | 4.0 | 6.0 | 0.00 | 0.31 | 0.31 | 94 | 993.1 |
| 20260506034142 | 48 | 41 | 2.0 | 6.0 | 0.00 | 0.31 | 0.31 | 95 | 993.6 |
| 20260506033640 | 48 | 102 | 2.0 | 6.0 | 0.02 | 0.31 | 0.31 | 94 | 993.8 |
| 20260506033140 | 48 | 37 | 2.0 | 5.0 | 0.07 | 0.31 | 0.31 | 94 | 994.2 |
| 20260506032637 | 48 | 39 | 3.0 | 4.0 | 0.11 | 0.31 | 0.31 | 94 | 994.3 |
| 20260506032144 | 48 | 68 | 1.0 | 4.0 | 0.13 | 0.31 | 0.31 | 94 | 994.2 |
| 20260506031653 | 48 | 59 | 2.0 | 6.0 | 0.14 | 0.31 | 0.31 | 94 | 994.2 |
| 20260506031141 | 48 | 51 | 2.0 | 6.0 | 0.14 | 0.31 | 0.31 | 94 | 994.3 |
| 20260506030639 | 48 | 7 | 2.0 | 3.0 | 0.14 | 0.31 | 0.31 | 94 | 994.7 |
| 20260506030140 | 49 | 11 | 2.0 | 4.0 | 0.14 | 0.31 | 0.31 | 94 | 994.3 |
| 20260506025641 | 49 | 11 | 2.0 | 4.0 | 0.14 | 0.31 | 0.31 | 94 | 994.0 |
| 20260506025138 | 49 | 82 | 2.0 | 3.0 | 0.14 | 0.31 | 0.31 | 94 | 994.0 |
| 20260506024639 | 49 | 10 | 2.0 | 6.0 | 0.14 | 0.31 | 0.31 | 94 | 993.7 |
| 20260506024138 | 49 | 79 | 3.0 | 6.0 | 0.14 | 0.31 | 0.31 | 94 | 993.6 |
| 20260506023638 | 49 | 35 | 2.0 | 5.0 | 0.13 | 0.29 | 0.30 | 94 | 994.1 |
| 20260506023138 | 49 | 68 | 3.0 | 6.0 | 0.07 | 0.24 | 0.24 | 94 | 993.5 |
| 20260506022910 | 49 | 16 | 2.0 | 6.0 | 0.04 | 0.20 | 0.20 | 94 | 993.9 |
| 20260506022409 | 49 | 18 | 1.0 | 3.0 | 0.02 | 0.18 | 0.18 | 94 | 993.4 |
| 20260506021639 | 49 | 34 | 3.0 | 6.0 | 0.01 | 0.17 | 0.17 | 94 | 993.3 |
| 20260506021137 | 49 | 34 | 3.0 | 9.0 | 0.01 | 0.17 | 0.17 | 94 | 993.2 |
| 20260506020637 | 49 | 25 | 2.0 | 9.0 | 0.01 | 0.17 | 0.17 | 94 | 993.1 |
| 20260506020136 | 49 | 113 | 2.0 | 4.0 | 0.01 | 0.17 | 0.17 | 94 | 993.0 |
| 20260506015635 | 49 | 68 | 3.0 | 9.0 | 0.01 | 0.17 | 0.17 | 94 | 993.0 |
| 20260506015136 | 49 | 47 | 2.0 | 9.0 | 0.01 | 0.17 | 0.17 | 94 | 993.2 |
| 20260506014636 | 50 | 3 | 2.0 | 6.0 | 0.01 | 0.17 | 0.17 | 94 | 993.0 |
| 20260506014136 | 50 | 37 | 3.0 | 5.0 | 0.01 | 0.17 | 0.17 | 94 | 992.9 |
| 20260506013635 | 50 | 58 | 1.0 | 9.0 | 0.02 | 0.17 | 0.17 | 94 | 993.0 |
| 20260506013137 | 50 | 69 | 4.0 | 9.0 | 0.02 | 0.17 | 0.17 | 94 | 992.8 |
| 20260506012635 | 51 | 102 | 6.0 | 11.0 | 0.01 | 0.16 | 0.16 | 94 | 992.4 |
| 20260506012135 | 51 | 102 | 6.0 | 11.0 | 0.01 | 0.16 | 0.16 | 94 | 992.8 |
| 20260506011634 | 51 | 76 | 3.0 | 6.0 | 0.01 | 0.16 | 0.16 | 94 | 992.6 |
| 20260506011135 | 51 | 103 | 2.0 | 5.0 | 0.01 | 0.16 | 0.16 | 94 | 992.9 |
| 20260506010635 | 51 | 34 | 1.0 | 5.0 | 0.01 | 0.16 | 0.16 | 94 | 993.0 |
| 20260506010133 | 51 | 65 | 2.0 | 6.0 | 0.01 | 0.16 | 0.16 | 94 | 992.7 |
| 20260506005634 | 51 | 21 | 2.0 | 6.0 | 0.01 | 0.16 | 0.16 | 94 | 992.6 |
| 20260506005134 | 51 | 16 | 3.0 | 6.0 | 0.01 | 0.16 | 0.16 | 94 | 992.5 |
| 20260506004634 | 51 | 13 | 1.0 | 3.0 | 0.01 | 0.16 | 0.16 | 94 | 992.2 |
| 20260506004134 | 52 | 63 | 1.0 | 3.0 | 0.01 | 0.16 | 0.16 | 94 | 991.8 |
| 20260506003634 | 52 | 78 | 2.0 | 3.0 | 0.00 | 0.15 | 0.15 | 94 | 991.8 |
| 20260506003403 | 52 | 62 | 1.0 | 4.0 | 0.00 | 0.15 | 0.15 | 94 | 991.8 |
| 20260506002632 | 52 | 87 | 2.0 | 4.0 | 0.00 | 0.15 | 0.15 | 94 | 991.7 |
| 20260506002133 | 52 | 45 | 1.0 | 4.0 | 0.00 | 0.15 | 0.15 | 94 | 991.9 |
| 20260506001631 | 52 | 30 | 1.0 | 9.0 | 0.00 | 0.15 | 0.15 | 94 | 991.9 |
| 20260506001134 | 52 | 27 | 4.0 | 9.0 | 0.00 | 0.15 | 0.15 | 94 | 991.7 |
| 20260506000632 | 52 | 24 | 5.0 | 6.0 | 0.00 | 0.15 | 0.15 | 94 | 991.6 |
| 20260506000137 | 52 | 27 | 3.0 | 6.0 | 0.00 | 0.15 | 0.15 | 94 | 991.6 |
| 20260505235631 | 53 | 31 | 2.0 | 6.0 | 0.00 | 0.15 | 0.15 | 94 | 991.6 |
| 20260505235132 | 53 | 62 | 2.0 | 5.0 | 0.00 | 0.15 | 0.15 | 94 | 991.4 |
| 20260505234631 | 53 | 3 | 3.0 | 4.0 | 0.00 | 0.15 | 0.15 | 94 | 991.3 |
| 20260505234132 | 53 | 41 | 3.0 | 4.0 | 0.00 | 0.15 | 0.15 | 94 | 991.4 |
| 20260505233902 | 54 | 3 | 3.0 | 3.0 | 0.01 | 0.15 | 0.15 | 94 | 991.7 |
| 20260505233402 | 54 | 31 | 3.0 | 4.0 | 0.01 | 0.15 | 0.15 | 94 | 991.7 |
| 20260505232630 | 54 | 8 | 3.0 | 4.0 | 0.01 | 0.15 | 0.15 | 94 | 991.8 |
| 20260505232402 | 54 | 68 | 1.0 | 2.0 | 0.01 | 0.15 | 0.15 | 94 | 991.5 |
| 20260505231630 | 54 | 58 | 1.0 | 2.0 | 0.01 | 0.15 | 0.15 | 94 | 991.4 |
| 20260505231130 | 54 | 87 | 1.0 | 2.0 | 0.01 | 0.15 | 0.15 | 94 | 991.3 |
| 20260505230630 | 54 | 75 | 1.0 | 2.0 | 0.01 | 0.15 | 0.15 | 94 | 991.2 |
| 20260505230130 | 54 | 72 | 1.0 | 2.0 | 0.01 | 0.15 | 0.15 | 94 | 991.2 |
| 20260505225629 | 54 | 72 | 1.0 | 6.0 | 0.01 | 0.15 | 0.15 | 94 | 991.2 |
| 20260505225128 | 54 | 72 | 3.0 | 6.0 | 0.01 | 0.15 | 0.15 | 94 | 991.1 |
| 20260505224629 | 54 | 96 | 3.0 | 4.0 | 0.01 | 0.15 | 0.15 | 94 | 991.0 |
| 20260505224129 | 54 | 86 | 3.0 | 5.0 | 0.01 | 0.15 | 0.15 | 94 | 991.0 |
| 20260505223900 | 54 | 92 | 2.0 | 6.0 | 0.00 | 0.14 | 0.14 | 93 | 991.3 |
| 20260505223128 | 54 | 48 | 3.0 | 6.0 | 0.00 | 0.14 | 0.14 | 93 | 991.8 |
| 20260505222859 | 54 | 24 | 2.0 | 5.0 | 0.00 | 0.14 | 0.14 | 93 | 991.7 |
| 20260505222127 | 54 | 42 | 2.0 | 5.0 | 0.00 | 0.14 | 0.14 | 93 | 991.5 |
| 20260505221623 | 55 | 35 | 1.0 | 3.0 | 0.00 | 0.14 | 0.14 | 93 | 991.4 |
| 20260505221127 | 55 | 39 | 2.0 | 5.0 | 0.00 | 0.14 | 0.14 | 93 | 991.2 |
| 20260505220626 | 55 | 39 | 1.0 | 5.0 | 0.00 | 0.14 | 0.14 | 93 | 990.6 |
| 20260505220126 | 55 | 63 | 2.0 | 5.0 | 0.00 | 0.14 | 0.14 | 93 | 990.6 |
| 20260505215626 | 55 | 71 | 1.0 | 4.0 | 0.00 | 0.14 | 0.14 | 93 | 990.5 |
| 20260505215127 | 55 | 92 | 2.0 | 4.0 | 0.00 | 0.14 | 0.14 | 93 | 990.7 |
| 20260505214625 | 55 | 23 | 3.0 | 4.0 | 0.00 | 0.14 | 0.14 | 93 | 990.8 |
| 20260505214125 | 55 | 23 | 3.0 | 6.0 | 0.00 | 0.14 | 0.14 | 93 | 990.9 |
| 20260505213624 | 56 | 99 | 4.0 | 7.0 | 0.00 | 0.14 | 0.14 | 93 | 991.1 |
| 20260505213122 | 56 | 69 | 3.0 | 7.0 | 0.00 | 0.14 | 0.14 | 93 | 991.1 |
| 20260505212624 | 56 | 62 | 2.0 | 9.0 | 0.00 | 0.14 | 0.14 | 93 | 991.2 |
| 20260505212123 | 56 | 65 | 3.0 | 10.0 | 0.00 | 0.14 | 0.14 | 93 | 991.4 |
| 20260505211624 | 56 | 37 | 4.0 | 10.0 | 0.01 | 0.14 | 0.14 | 93 | 991.2 |
| 20260505211122 | 56 | 24 | 2.0 | 12.0 | 0.01 | 0.14 | 0.14 | 93 | 991.6 |
| 20260505210623 | 57 | 25 | 4.0 | 12.0 | 0.01 | 0.14 | 0.14 | 94 | 991.6 |
| 20260505210123 | 57 | 3 | 1.0 | 12.0 | 0.01 | 0.14 | 0.14 | 94 | 991.2 |
| 20260505205623 | 57 | 55 | 5.0 | 12.0 | 0.01 | 0.14 | 0.14 | 94 | 990.9 |
| 20260505205121 | 57 | 72 | 2.0 | 6.0 | 0.01 | 0.14 | 0.14 | 95 | 990.5 |
| 20260505204852 | 57 | 100 | 2.0 | 6.0 | 0.02 | 0.14 | 0.14 | 95 | 990.6 |
| 20260505204121 | 57 | 82 | 3.0 | 6.0 | 0.02 | 0.14 | 0.14 | 94 | 990.6 |
| 20260505203854 | 57 | 90 | 2.0 | 3.0 | 0.02 | 0.14 | 0.14 | 94 | 990.8 |
| 20260505203122 | 57 | 79 | 1.0 | 7.0 | 0.02 | 0.14 | 0.14 | 94 | 991.2 |
| 20260505202623 | 57 | 23 | 1.0 | 7.0 | 0.02 | 0.14 | 0.14 | 94 | 991.4 |
| 20260505202122 | 57 | 30 | 2.0 | 4.0 | 0.02 | 0.14 | 0.14 | 94 | 991.4 |
| 20260505201622 | 57 | 25 | 0.0 | 4.0 | 0.02 | 0.13 | 0.13 | 94 | 991.3 |
| 20260505201121 | 57 | 65 | 1.0 | 5.0 | 0.02 | 0.13 | 0.13 | 94 | 991.3 |
| 20260505200622 | 57 | 354 | 2.0 | 5.0 | 0.02 | 0.13 | 0.13 | 94 | 991.2 |
| 20260505200352 | 58 | 11 | 3.0 | 5.0 | 0.02 | 0.13 | 0.13 | 93 | 991.0 |
| 20260505195621 | 58 | 51 | 0.0 | 2.0 | 0.02 | 0.13 | 0.13 | 94 | 991.1 |
| 20260505195352 | 58 | 51 | 0.0 | 2.0 | 0.02 | 0.13 | 0.13 | 94 | 990.9 |
| 20260505194619 | 0 | 58 | 0.0 | 0.0 | 0.06 | 0.12 | 0.12 | 991.0 | |
| 20260505194119 | 0 | 58 | 0.0 | 0.0 | 0.06 | 0.12 | 0.12 | 991.1 | |
| 20260505193618 | 0 | 0.0 | 0.0 | 0.06 | 0.12 | 0.12 | 991.1 | ||
| 20260505193117 | 0 | 0.0 | 0.0 | 0.06 | 0.12 | 0.12 | 991.0 | ||
| 20260505192616 | 0 | 0.0 | 0.0 | 0.06 | 0.12 | 0.12 | 991.1 | ||
| 20260505192115 | 0 | 0.0 | 0.0 | 0.06 | 0.12 | 0.12 | 991.1 | ||
| 20260505191613 | 0 | 0.0 | 0.0 | 0.06 | 0.12 | 0.12 | 991.1 | ||
| 20260505191112 | 0 | 0.0 | 0.0 | 0.06 | 0.12 | 0.12 | 991.0 | ||
| 20260505190611 | 0 | 0.0 | 0.0 | 0.06 | 0.12 | 0.12 | 991.0 | ||
| 20260505190110 | 0 | 69 | 3.0 | 4.0 | 0.06 | 0.12 | 0.12 | 990.9 | |
| 20260505185608 | 61 | 69 | 3.0 | 5.0 | 0.06 | 0.12 | 0.12 | 93 | 990.8 |
| 20260505184609 | 0 | 0.0 | 0.0 | 0.00 | 0.06 | 0.06 | 990.7 | ||
| 20260505184107 | 0 | 0.0 | 0.0 | 0.00 | 0.06 | 0.06 | 990.6 | ||
| 20260505183606 | 0 | 0.0 | 0.0 | 0.00 | 0.06 | 0.06 | 990.4 | ||
| 20260505183105 | 0 | 0.0 | 0.0 | 0.00 | 0.06 | 0.06 | 990.5 | ||
| 20260505182103 | 0 | 0.0 | 0.0 | 0.00 | 0.06 | 0.06 | 990.4 | ||
| 20260505181602 | 0 | 0.0 | 0.0 | 0.00 | 0.06 | 0.06 | 990.4 | ||
| 20260505181101 | 0 | 0.0 | 0.0 | 0.01 | 0.06 | 0.06 | 990.4 | ||
| 20260505180559 | 0 | 0.0 | 0.0 | 0.01 | 0.06 | 0.06 | 990.7 | ||
| 20260505180059 | 0 | 0.0 | 0.0 | 0.01 | 0.06 | 0.06 | 990.7 | ||
| 20260505175557 | 0 | 0.0 | 0.0 | 0.01 | 0.06 | 0.06 | 990.7 | ||
| 20260505175056 | 0 | 0.0 | 0.0 | 0.01 | 0.06 | 0.06 | 990.8 | ||
| 20260505174826 | 0 | 0.0 | 0.0 | 0.01 | 0.06 | 0.06 | 990.9 | ||
| 20260505174053 | 0 | 0.0 | 0.0 | 0.01 | 0.06 | 0.06 | 990.7 | ||
| 20260505173553 | 0 | 0.0 | 0.0 | 0.01 | 0.06 | 0.06 | 990.7 | ||
| 20260505173051 | 0 | 0.0 | 0.0 | 0.01 | 0.06 | 0.06 | 990.8 | ||
| 20260505172550 | 64 | 134 | 1.0 | 2.0 | 0.01 | 0.06 | 0.06 | 92 | 990.7 |
| 20260505172049 | 64 | 134 | 1.0 | 2.0 | 0.01 | 0.06 | 0.06 | 92 | 990.6 |
| 20260505171548 | 64 | 134 | 1.0 | 2.0 | 0.01 | 0.06 | 0.06 | 92 | 990.3 |
| 20260505171048 | 64 | 134 | 0.0 | 2.0 | 0.00 | 0.06 | 0.06 | 92 | 990.3 |
| 20260505170548 | 64 | 134 | 0.0 | 2.0 | 0.00 | 0.06 | 0.06 | 92 | 990.4 |
| 20260505170321 | 64 | 134 | 0.0 | 3.0 | 0.00 | 0.06 | 0.06 | 92 | 990.6 |
| 20260505165548 | 64 | 134 | 1.0 | 3.0 | 0.00 | 0.06 | 0.06 | 91 | 990.6 |
| 20260505165047 | 64 | 118 | 0.0 | 1.0 | 0.00 | 0.06 | 0.06 | 92 | 990.8 |
| 20260505164819 | 64 | 118 | 0.0 | 2.0 | 0.00 | 0.06 | 0.06 | 92 | 990.9 |
| 20260505164047 | 64 | 118 | 0.0 | 2.0 | 0.00 | 0.06 | 0.06 | 91 | 990.9 |
| 20260505163547 | 63 | 118 | 0.0 | 1.0 | 0.00 | 0.06 | 0.06 | 91 | 990.9 |
| 20260505163046 | 63 | 118 | 0.0 | 2.0 | 0.00 | 0.06 | 0.06 | 91 | 991.0 |
| 20260505162545 | 63 | 118 | 1.0 | 3.0 | 0.00 | 0.06 | 0.06 | 91 | 991.0 |
| 20260505162045 | 63 | 117 | 1.0 | 3.0 | 0.00 | 0.06 | 0.06 | 90 | 991.1 |
| 20260505161550 | 63 | 113 | 0.0 | 3.0 | 0.00 | 0.06 | 0.06 | 90 | 991.2 |
| 20260505161046 | 63 | 250 | 2.0 | 3.0 | 0.00 | 0.06 | 0.06 | 91 | 991.2 |
| 20260505153042 | 62 | 250 | 0.0 | 1.0 | 0.00 | 0.06 | 0.06 | 91 | 991.0 |
| 20260505152314 | 62 | 243 | 2.0 | 6.0 | 0.00 | 0.06 | 0.06 | 91 | 990.8 |
| 20260505151544 | 62 | 243 | 2.0 | 6.0 | 0.00 | 0.06 | 0.06 | 91 | 990.8 |
| 20260505151314 | 62 | 221 | 3.0 | 5.0 | 0.00 | 0.06 | 0.06 | 91 | 990.7 |
| 20260505150813 | 62 | 219 | 2.0 | 5.0 | 0.00 | 0.06 | 0.06 | 91 | 990.7 |